Hourly Weather Klebow

Today, 21 April, Wednesday

Time Temperature Precipitation Wind Pressure Humidity
00:00 +7°C° 0 mm 2 mps 744 mmHg 82%
01:00 +6°C° 0 mm 2 mps 744 mmHg 83%
02:00 +6°C° 0 mm 2 mps 744 mmHg 85%
03:00 +6°C° 0 mm 2 mps 744 mmHg 86%
04:00 +6°C° 0 mm 2 mps 744 mmHg 87%
05:00 +7°C° 0 mm 3 mps 744 mmHg 83%
06:00 +8°C° 0 mm 3 mps 744 mmHg 79%
07:00 +9°C° 0 mm 3 mps 744 mmHg 75%
08:00 +10°C° 0.2 mm 3 mps 744 mmHg 71%
09:00 +12°C° 0.2 mm 4 mps 744 mmHg 66%
10:00 +13°C° 0.2 mm 4 mps 743 mmHg 62%
11:00 +14°C° 0.4 mm 5 mps 743 mmHg 59%
12:00 +14°C° 0.4 mm 5 mps 743 mmHg 55%
13:00 +15°C° 0.4 mm 5 mps 743 mmHg 52%
14:00 +15°C° 0.4 mm 5 mps 743 mmHg 54%
15:00 +14°C° 0.4 mm 4 mps 743 mmHg 55%
16:00 +14°C° 0.4 mm 4 mps 742 mmHg 57%
17:00 +13°C° 0.1 mm 3 mps 743 mmHg 62%
18:00 +12°C° 0.1 mm 3 mps 743 mmHg 68%
19:00 +10°C° 0.1 mm 2 mps 743 mmHg 74%
20:00 +10°C° 0 mm 2 mps 743 mmHg 76%
21:00 +9°C° 0 mm 3 mps 743 mmHg 79%
22:00 +9°C° 0 mm 3 mps 743 mmHg 81%
23:00 +8°C° 0 mm 3 mps 743 mmHg 81%

Tomorrow, 22 April, Thursday

Time Temperature Precipitation Wind Pressure Humidity
00:00 +8°C° 0 mm 3 mps 743 mmHg 81%
01:00 +7°C° 0 mm 3 mps 743 mmHg 82%
02:00 +5°C° 0 mm 3 mps 743 mmHg 83%
03:00 +5°C° 0 mm 3 mps 743 mmHg 85%
04:00 +4°C° 0 mm 3 mps 743 mmHg 87%
05:00 +5°C° 0.1 mm 4 mps 744 mmHg 86%
06:00 +5°C° 0.1 mm 4 mps 744 mmHg 86%
07:00 +6°C° 0.1 mm 5 mps 745 mmHg 85%
08:00 +6°C° 0.1 mm 5 mps 745 mmHg 79%
09:00 +5°C° 0.1 mm 6 mps 745 mmHg 74%
10:00 +4°C° 0.1 mm 6 mps 746 mmHg 68%
11:00 +5°C° 0 mm 6 mps 746 mmHg 60%
12:00 +6°C° 0 mm 7 mps 746 mmHg 52%
13:00 +8°C° 0 mm 7 mps 746 mmHg 44%
14:00 +8°C° 0 mm 7 mps 746 mmHg 45%
15:00 +8°C° 0 mm 6 mps 746 mmHg 46%
16:00 +8°C° 0 mm 6 mps 746 mmHg 47%
17:00 +7°C° 0 mm 5 mps 746 mmHg 53%
18:00 +5°C° 0 mm 4 mps 746 mmHg 58%
19:00 +4°C° 0 mm 3 mps 747 mmHg 64%
20:00 +3°C° 0 mm 4 mps 747 mmHg 71%
21:00 +3°C° 0 mm 4 mps 747 mmHg 77%
22:00 +1°C° 0 mm 4 mps 747 mmHg 84%
23:00 +1°C° 0 mm 4 mps 747 mmHg 86%

Day after tomorrow, 23 April, Friday

Time Temperature Precipitation Wind Pressure Humidity
00:00 0°C° 0 mm 4 mps 747 mmHg 88%
01:00 0°C° 0 mm 5 mps 747 mmHg 90%
02:00 0°C° 0 mm 5 mps 747 mmHg 87%
03:00 -1°C° 0 mm 5 mps 747 mmHg 84%
04:00 -1°C° 0 mm 5 mps 747 mmHg 81%
05:00 0°C° 0 mm 5 mps 747 mmHg 77%
06:00 +1°C° 0 mm 5 mps 748 mmHg 74%
07:00 +2°C° 0 mm 5 mps 748 mmHg 70%
08:00 +3°C° 0.2 mm 6 mps 748 mmHg 63%
09:00 +4°C° 0.2 mm 6 mps 748 mmHg 55%
10:00 +7°C° 0.2 mm 6 mps 748 mmHg 48%
11:00 +7°C° 0.1 mm 6 mps 748 mmHg 47%
12:00 +7°C° 0.1 mm 6 mps 748 mmHg 46%
13:00 +8°C° 0.1 mm 6 mps 748 mmHg 45%
14:00 +7°C° 0.3 mm 6 mps 748 mmHg 56%
15:00 +5°C° 0.3 mm 7 mps 748 mmHg 67%
16:00 +4°C° 0.3 mm 7 mps 748 mmHg 79%
17:00 +2°C° 0.2 mm 7 mps 748 mmHg 83%
18:00 +1°C° 0.2 mm 6 mps 748 mmHg 87%
19:00 -1°C° 0.2 mm 6 mps 749 mmHg 91%
20:00 0°C° 0 mm 5 mps 749 mmHg 90%
21:00 -1°C° 0 mm 5 mps 749 mmHg 89%
22:00 -1°C° 0 mm 4 mps 749 mmHg 88%
23:00 -2°C° 0 mm 4 mps 749 mmHg 89%

24 April, Saturday

Time Temperature Precipitation Wind Pressure Humidity
00:00 -1°C° 0 mm 3 mps 749 mmHg 90%
01:00 -2°C° 0 mm 3 mps 750 mmHg 90%
02:00 -2°C° 0 mm 3 mps 750 mmHg 90%
03:00 -3°C° 0 mm 4 mps 750 mmHg 89%
04:00 -3°C° 0 mm 4 mps 750 mmHg 88%
05:00 -2°C° 0 mm 4 mps 750 mmHg 82%
06:00 -1°C° 0 mm 5 mps 750 mmHg 76%
07:00 0°C° 0 mm 5 mps 750 mmHg 70%
08:00 +2°C° 0.1 mm 6 mps 750 mmHg 64%
09:00 +3°C° 0.1 mm 6 mps 750 mmHg 59%
10:00 +4°C° 0.1 mm 7 mps 750 mmHg 53%
11:00 +5°C° 0.2 mm 7 mps 750 mmHg 50%
12:00 +5°C° 0.2 mm 7 mps 750 mmHg 46%
13:00 +6°C° 0.2 mm 7 mps 750 mmHg 42%
14:00 +7°C° 0.1 mm 6 mps 750 mmHg 45%
15:00 +5°C° 0.1 mm 6 mps 750 mmHg 48%
16:00 +5°C° 0.1 mm 6 mps 750 mmHg 51%
17:00 +5°C° 0.2 mm 5 mps 750 mmHg 61%
18:00 +2°C° 0.2 mm 5 mps 750 mmHg 71%
19:00 +1°C° 0.2 mm 4 mps 751 mmHg 81%
20:00 0°C° 0.1 mm 4 mps 751 mmHg 86%
21:00 0°C° 0.1 mm 3 mps 751 mmHg 90%
22:00 0°C° 0.1 mm 3 mps 751 mmHg 94%
23:00 -1°C° 0 mm 3 mps 751 mmHg 92%

25 April, Sunday

Time Temperature Precipitation Wind Pressure Humidity
00:00 -2°C° 0 mm 3 mps 751 mmHg 90%
01:00 -3°C° 0 mm 4 mps 751 mmHg 88%
02:00 -3°C° 0 mm 4 mps 751 mmHg 89%
03:00 -3°C° 0 mm 4 mps 751 mmHg 89%
04:00 -4°C° 0 mm 5 mps 751 mmHg 90%
05:00 -2°C° 0 mm 5 mps 751 mmHg 84%
06:00 -2°C° 0 mm 6 mps 751 mmHg 77%
07:00 -1°C° 0 mm 6 mps 751 mmHg 71%
08:00 +1°C° 0.1 mm 6 mps 751 mmHg 65%
09:00 +2°C° 0.1 mm 7 mps 751 mmHg 59%
10:00 +3°C° 0.1 mm 7 mps 751 mmHg 54%
11:00 +4°C° 0.2 mm 7 mps 751 mmHg 52%
12:00 +4°C° 0.2 mm 7 mps 751 mmHg 50%
13:00 +5°C° 0.2 mm 7 mps 750 mmHg 48%
14:00 +4°C° 0.3 mm 7 mps 750 mmHg 53%
15:00 +4°C° 0.3 mm 6 mps 750 mmHg 58%
16:00 +4°C° 0.3 mm 6 mps 750 mmHg 63%
17:00 +3°C° 0.2 mm 5 mps 750 mmHg 68%
18:00 +1°C° 0.2 mm 4 mps 750 mmHg 74%
19:00 +1°C° 0.2 mm 3 mps 750 mmHg 80%
20:00 0°C° 0 mm 3 mps 750 mmHg 82%
21:00 -1°C° 0 mm 3 mps 751 mmHg 83%
22:00 -2°C° 0 mm 3 mps 751 mmHg 85%
23:00 -2°C° 0 mm 3 mps 751 mmHg 84%

26 April, Monday

Time Temperature Precipitation Wind Pressure Humidity
00:00 -3°C° 0 mm 4 mps 751 mmHg 84%
01:00 -3°C° 0 mm 4 mps 751 mmHg 83%
02:00 -4°C° 0 mm 4 mps 751 mmHg 82%
03:00 -4°C° 0 mm 4 mps 751 mmHg 81%
04:00 -4°C° 0 mm 4 mps 751 mmHg 80%
05:00 -2°C° 0 mm 5 mps 751 mmHg 73%
06:00 -1°C° 0 mm 5 mps 751 mmHg 67%
07:00 +1°C° 0 mm 6 mps 751 mmHg 60%
08:00 +3°C° 0 mm 6 mps 751 mmHg 54%
09:00 +4°C° 0 mm 6 mps 751 mmHg 49%
10:00 +7°C° 0 mm 6 mps 751 mmHg 43%
11:00 +8°C° 0 mm 6 mps 751 mmHg 42%
12:00 +8°C° 0 mm 6 mps 750 mmHg 42%
13:00 +9°C° 0 mm 5 mps 750 mmHg 41%
14:00 +9°C° 0 mm 5 mps 750 mmHg 42%
15:00 +9°C° 0 mm 5 mps 750 mmHg 43%
16:00 +10°C° 0 mm 4 mps 749 mmHg 44%
17:00 +7°C° 0 mm 4 mps 749 mmHg 51%
18:00 +7°C° 0 mm 3 mps 749 mmHg 58%
19:00 +5°C° 0 mm 2 mps 749 mmHg 64%
20:00 +4°C° 0 mm 2 mps 749 mmHg 66%
21:00 +4°C° 0 mm 2 mps 749 mmHg 67%
22:00 +3°C° 0 mm 2 mps 749 mmHg 68%
23:00 +3°C° 0 mm 2 mps 749 mmHg 69%
Show more

We Need Your Consent

Meteoprog and our Service Providers may store and access personal data such as cookies, device identifiers or other similar technologies on your device and process such data to personalise content and ads, as well as provide social media features and to analyse the traffic.

  • Store and/or access information on your device

    Cookies, device identifiers or other information can be stored or accessed on your device for the purposes indicated above.

  • Personalised ads and content, ad and content measurement, audience insights, and products development

    Ads and content can be personalised based on a profile. More data can be added to better personalise ads and content. Ad and content performance can be measured. Insights about the audience who saw the ads and content can be derived. Such data can be used to develop or improve user’s experience, systems and software.

By clicking ‘I Agree’ you will allow the use of indicated cookies, device identifiers, web beacons or other similar technologies. Your settings can be changed in the browser on your device.

For certain purposes, legitimate interests may be relied on, rather than consent. You can read more about this in our Privacy and Cookie Policy.